Regional Weather Roundup
Issued by NWS Green Bay, WI

Home | Current Version | Previous Version | Graphics & Text | Print | Product List | Glossary Off
Versions: 1 2 3 4 5 6 7 8 9 10 11 12 13 14 15 16 17 18 19 20 21 22 23 24 25 26 27 28 29 30 31 32 33 34 35 36 37 38 39 40 41 42 43 44 45 46 47 48 49 50

161
ASUS43 KGRB 210000
RWRGRB

NORTH-CENTRAL AND NORTHEAST WISCONSIN REGIONAL WEATHER ROUNDUP
NATIONAL WEATHER SERVICE GREEN BAY WI
600 PM CST TUE FEB 20 2018

WIZ005-009-010>012-018-019-210100-
NORTH CENTRAL WISCONSIN

CITY           SKY/WX    TMP DP  RH WIND       PRES   REMARKS
IRONWOOD       LGT SNOW  17  16  95 W9        29.97R FOG     WCI   6
MANITOWISH WTR NOT AVBL
ARBOR VITAE    NOT AVBL
EAGLE RIVER    CLOUDY    22  20  93 NW8       29.91R
LAND O LAKES   NOT AVBL
RHINELANDER    CLOUDY    23  21  92 W12G23    29.92R
PHILLIPS       NOT AVBL
ANTIGO         NOT AVBL
TOMAHAWK       NOT AVBL
MERRILL        CLOUDY    24  21  91 W13       29.97R
$$

WIZ013-073-210100-
NORTHEAST WISCONSIN

CITY           SKY/WX    TMP DP  RH WIND       PRES   REMARKS
IRON MOUNTAIN  CLOUDY    29  25  85 NW10      29.88R
MARINETTE      CLOUDY    33  32  96 W5        29.92R
$$

WIZ017-030-035>037-045-210100-
CENTRAL WISCONSIN

CITY           SKY/WX    TMP DP  RH WIND       PRES   REMARKS
MEDFORD        NOT AVBL
WAUSAU         CLOUDY    23  20  88 W14       29.96R
MOSINEE        NOT AVBL
MARSHFIELD     CLOUDY    22  18  85 NW16G23   29.98R WCI   8
WISC RAPIDS    CLOUDY    24  20  84 W9        30.02R
STEVENS POINT  NOT AVBL
WAUPACA        NOT AVBL
SHAWANO        CLOUDY    31  27  83 W15G23    29.95R
CLINTONVILLE   CLOUDY    29  24  79 W18       29.97R
WAUTOMA        CLOUDY    27  23  85 W18G25    30.02R
$$

WIZ038-039-048-051-210100-
FOX VALLEY

CITY           SKY/WX    TMP DP  RH WIND       PRES   REMARKS
NWS GREEN BAY  CLOUDY    33  28  81 W13       29.96R
APPLETON       NOT AVBL
OSHKOSH        CLOUDY    32  28  85 W16G23    29.98R
FOND DU LAC    CLOUDY    34  29  82 W14       29.99R
$$

WIZ022-050-052-210100-
EAST CENTRAL WISCONSIN

CITY           SKY/WX    TMP DP  RH WIND       PRES   REMARKS
EPHRAIM        NOT AVBL
WASHINGTON ISL NOT AVBL
STURGEON BAY   CLOUDY    34  32  92 W10       29.93R
MANITOWOC      CLOUDY    35  32  88 W8        29.97R
SHEBOYGAN      CLOUDY    35  33  92 W10       29.97R
$$

LMZ563-521-522-541>543-210100-
LAKESHORE

STATION/POSITION TIME  TEMP    WIND        PRES    VSBY  WAVE
                       AIR SEA DIR/SP/G                  HT/PER
                 (UTC) (F)     (DEG/KT/KT) (MB)    (MI)  (FT/S)
KEWAUNEE LKSHORE 2330   35     280/  6/ 10 1012.4R
SISTER BAY LKSHO 2320   33     260/  7/  8   N/A
MENOMINEE LKSHOR 2330   34     230/  8/ 11 1012.0R
$$




USA.gov is the U.S. government's official web portal to all federal, state and local government web resources and services.